sat.trackr.live / text

‹ back to catalog

RASSVET-3 6

NORAD 68365 · 2026-061F

PAYLOAD ACTIVE UNKNOWN

§ Identity

Operator
Country
CIS
Launch date
2026-03-23
Launch site
PLMSC
Launch vehicle
Mass (kg)
RCS (m²)

External: N2YO · Heavens-Above · Gunter

§ Orbital elements

Epoch: 2026-09-19T08:57:59.483232Z

Period
94.84 min
Inclination
82.2912°
Eccentricity
0.0000470
Mean motion
15.18414345 rev/d
Perigee alt
510.3 km
Apogee alt
511.0 km
Semi-major
6,888.8 km
B*
1.0501e-4
RAAN
278.6490°
Arg perigee
149.8597°
Mean anomaly
210.2664°
Rev number
2,770

§ Raw data

RASSVET-3 61 68365U 26061F   26262.37360513  .00002189  00000+0  10501-3 0  99982 68365  82.2912 278.6490 0000470 149.8597 210.2664 15.18414345 27707

JSON: /api/v1/satellites/68365 · /tle

For live sub-satellite position, see the globe view (requires WebGL).

§ Visibility from observer

Set your observer location to see the next 7 days of passes ≥ 10°. The values pass through the URL so the page stays shareable.

No JS? Fill the form by hand. The geolocation button needs JavaScript.